"Pseudo-MPEC" for P22ooPS

Created 2026 Jul 21 15:35:12 UT using Find_Orb

Click here for an explanation of pseudo-MPECs

 
 Astrometry: 
     P22ooPS*0C2026 07 16.49725623 12 59.763+21 21 25.19   ~7GDo 21.29wXNEOCPF52
     P22ooPS 0C2026 07 16.50890923 13 05.247+21 20 30.37   ~7GDo 21.61wXNEOCPF52
     P22ooPS 0C2026 07 16.52052923 13 10.792+21 19 34.72   ~7GDo 21.41wXNEOCPF52

Station data:
(F52) Pan-STARRS 2, Haleakala  (N20.707382 W156.255910)  US/Hawaii.
   Observers J. Herman, T. Lowe, P. Minguez, A. Schultz, I. Smith. Measurers
   K. Chambers, T. de Boer, J. Fairlamb, H. Gao, M. Huber, C.-C. Lin, E.
   Magnier, Y. Ramanjooloo, R. Wainscoat, R. Weryk. 1.8-m Ritchey-Chrétien +
   CCD.

Orbital elements:  P22ooPS
   Perihelion 2026 Oct 12.721334 +/- 28.6 TT = 17:18:43.2 (JD 2461326.221334)
Epoch 2026 Jul 17.0 TT = JDT 2461238.5   Earth MOID: 0.0217   Ve: 0.0515
M 262.442215581 +/- 46              (J2000 ecliptic)             AutoNEOCP
n   1.112132937 +/- 0.7             Peri.  309.470105 +/- 60
a   0.922638515 +/- 0.387           Node   123.388928 +/- 23
e   0.36441830 +/- 0.218            Incl.   35.151263 +/- 32
P   0.886/323.696d         H 23.42  G  0.15   U 12.5  SR
q 0.586412155 +/- 0.304    Q 1.258864876 +/- 21.6
From 3 observations 2026 July 16 (33.5 min); mean residual 0".22
Residuals in arcseconds: 
260716 F52  .18+  .13-    260716 F52  .37-  .25+    260716 F52  .18+  .13-    

Ephemerides (geocentric):
Date (UTC) HH   RA             Dec           delta  r     elong  mag " sig PA
---- --------  ------------   ------------  ------ ------ -----  --- --------
2026 07 21 16  00 17 49.053   +09 10 05.51  .08082 1.0473 110.7 20.4  66d  75
2026 07 21 17  00 18 35.736   +09 00 18.31  .08048 1.0471 110.6 20.4  66d  75
2026 07 21 18  00 19 22.759   +08 50 25.81  .08015 1.0468 110.5 20.3  66d  75
2026 07 21 19  00 20 10.125   +08 40 27.95  .07982 1.0466 110.5 20.3  66d  75
2026 07 21 20  00 20 57.836   +08 30 24.71  .07949 1.0464 110.4 20.3  66d  75
2026 07 21 21  00 21 45.897   +08 20 16.03  .07916 1.0462 110.3 20.3  66d  75
2026 07 21 22  00 22 34.309   +08 10 01.89  .07883 1.0459 110.3 20.3  66d  75
2026 07 21 23  00 23 23.075   +07 59 42.24  .07851 1.0457 110.2 20.3  67d  75
2026 07 22 00  00 24 12.198   +07 49 17.04  .07818 1.0455 110.1 20.3  67d  75
2026 07 22 01  00 25 01.681   +07 38 46.27  .07786 1.0453 110.1 20.3  67d  75
2026 07 22 02  00 25 51.526   +07 28 09.87  .07754 1.0450 110.0 20.3  67d  75
2026 07 22 03  00 26 41.737   +07 17 27.81  .07722 1.0448 109.9 20.3  67d  75
2026 07 22 04  00 27 32.316   +07 06 40.06  .07691 1.0446 109.8 20.3  67d  76
2026 07 22 05  00 28 23.265   +06 55 46.59  .07659 1.0444 109.8 20.3  67d  76
2026 07 22 06  00 29 14.589   +06 44 47.35  .07628 1.0442 109.7 20.3  67d  76
2026 07 22 07  00 30 06.289   +06 33 42.32  .07597 1.0439 109.6 20.3  67d  76
2026 07 22 08  00 30 58.368   +06 22 31.45  .07566 1.0437 109.5 20.3  67d  76
2026 07 22 09  00 31 50.830   +06 11 14.72  .07535 1.0435 109.5 20.2  67d  76
2026 07 22 10  00 32 43.676   +05 59 52.10  .07504 1.0433 109.4 20.2  67d  76
2026 07 22 11  00 33 36.911   +05 48 23.56  .07474 1.0430 109.3 20.2  67d  76
2026 07 22 12  00 34 30.536   +05 36 49.06  .07444 1.0428 109.2 20.2  67d  76
2026 07 22 13  00 35 24.554   +05 25 08.58  .07414 1.0426 109.1 20.2  67d  76
2026 07 22 14  00 36 18.969   +05 13 22.10  .07384 1.0424 109.0 20.2  67d  76
2026 07 22 15  00 37 13.782   +05 01 29.57  .07354 1.0421 108.9 20.2  67d  76
2026 07 22 16  00 38 08.998   +04 49 30.99  .07325 1.0419 108.8 20.2  67d  76
2026 07 22 17  00 39 04.618   +04 37 26.31  .07296 1.0417 108.8 20.2  67d  76
2026 07 22 18  00 40 00.645   +04 25 15.54  .07267 1.0415 108.7 20.2  67d  76
2026 07 22 19  00 40 57.082   +04 12 58.63  .07238 1.0412 108.6 20.2  67d  76
2026 07 22 20  00 41 53.932   +04 00 35.57  .07210 1.0410 108.5 20.2  67d  76
2026 07 22 21  00 42 51.197   +03 48 06.35  .07181 1.0408 108.4 20.2  67d  76
2026 07 22 22  00 43 48.880   +03 35 30.94  .07153 1.0406 108.3 20.2  67d  76
2026 07 22 23  00 44 46.985   +03 22 49.33  .07125 1.0403 108.2 20.2  67d  76
2026 07 23 00  00 45 45.513   +03 10 01.51  .07098 1.0401 108.1 20.2  67d  76
2026 07 23 01  00 46 44.466   +02 57 07.46  .07070 1.0399 108.0 20.2  67d  76
2026 07 23 02  00 47 43.849   +02 44 07.18  .07043 1.0397 107.8 20.2  67d  76
2026 07 23 03  00 48 43.663   +02 31 00.66  .07016 1.0394 107.7 20.1  67d  76
2026 07 23 04  00 49 43.911   +02 17 47.88  .06989 1.0392 107.6 20.1  67d  76
2026 07 23 05  00 50 44.596   +02 04 28.85  .06963 1.0390 107.5 20.1  67d  76
2026 07 23 06  00 51 45.719   +01 51 03.56  .06937 1.0387 107.4 20.1  67d  76
2026 07 23 07  00 52 47.284   +01 37 32.02  .06911 1.0385 107.3 20.1  67d  76
2026 07 23 08  00 53 49.293   +01 23 54.22  .06885 1.0383 107.2 20.1  67d  76
2026 07 23 09  00 54 51.748   +01 10 10.17  .06859 1.0381 107.1 20.1  67d  76
2026 07 23 10  00 55 54.651   +00 56 19.88  .06834 1.0378 106.9 20.1  67d  76
2026 07 23 11  00 56 58.006   +00 42 23.35  .06809 1.0376 106.8 20.1  67d  76
2026 07 23 12  00 58 01.814   +00 28 20.59  .06784 1.0374 106.7 20.1  67d  76
2026 07 23 13  00 59 06.078   +00 14 11.63  .06760 1.0372 106.6 20.1  67d  77
2026 07 23 14  01 00 10.799   -00 00 03.52  .06735 1.0369 106.4 20.1  67d  77
2026 07 23 15  01 01 15.981   -00 14 24.85  .06711 1.0367 106.3 20.1  67d  77